Time,TemperatureF,DewpointF,PressureIn,WindDirection,WindDirectionDegrees,WindSpeedMPH,WindSpeedGustMPH,Humidity,HourlyPrecipIn,Conditions,Clouds,dailyrainin,SoftwareType,DateUTC
2013-04-13 05:39:00,40.9,30.1,29.87,SW,223,0.0,0.0,65,0.00,,---,0.00,VWS V14.01,2013-04-13 09:39:00,
2013-04-13 05:40:00,40.9,30.1,29.88,WSW,238,6.0,7.0,65,0.00,,---,0.00,VWS V14.01,2013-04-13 09:40:00,
2013-04-13 05:44:00,40.9,30.1,29.87,WSW,243,0.0,6.0,65,0.00,,---,0.00,VWS V14.01,2013-04-13 09:44:00,
2013-04-13 05:49:00,40.8,30.3,29.88,WSW,248,4.0,4.0,66,0.00,,---,0.00,VWS V14.01,2013-04-13 09:49:00,
2013-04-13 05:50:00,40.8,30.3,29.88,WSW,243,2.0,8.0,66,0.00,,---,0.00,VWS V14.01,2013-04-13 09:50:00,
2013-04-13 05:54:00,40.7,30.2,29.88,WSW,249,0.0,5.0,66,0.00,,---,0.00,VWS V14.01,2013-04-13 09:54:00,
2013-04-13 05:59:00,40.6,30.5,29.88,West,263,2.0,2.0,67,0.00,,---,0.00,VWS V14.01,2013-04-13 09:59:00,
2013-04-13 06:00:00,40.6,30.5,29.88,WSW,250,1.0,8.0,67,0.00,,---,0.00,VWS V14.01,2013-04-13 10:00:00,
2013-04-13 06:04:00,40.5,30.4,29.87,WSW,237,2.0,3.0,67,0.00,,---,0.00,VWS V14.01,2013-04-13 10:04:00,
2013-04-13 06:09:00,40.4,30.3,29.87,WSW,237,1.0,3.0,67,0.00,,---,0.00,VWS V14.01,2013-04-13 10:09:00,
2013-04-13 06:10:00,40.4,30.3,29.87,WSW,253,1.0,3.0,67,0.00,,---,0.00,VWS V14.01,2013-04-13 10:10:00,
2013-04-13 06:14:00,40.3,30.2,29.87,WSW,242,2.0,4.0,67,0.00,,---,0.00,VWS V14.01,2013-04-13 10:14:00,
2013-04-13 06:19:00,40.2,30.1,29.87,WSW,242,1.0,2.0,67,0.00,,---,0.00,VWS V14.01,2013-04-13 10:19:00,
2013-04-13 06:20:00,40.2,30.1,29.88,SW,214,2.0,4.0,67,0.00,,---,0.00,VWS V14.01,2013-04-13 10:20:00,
2013-04-13 06:24:00,40.0,30.3,29.88,WSW,242,1.0,2.0,68,0.00,,---,0.00,VWS V14.01,2013-04-13 10:24:00,
2013-04-13 06:30:00,39.9,30.2,29.87,WSW,242,0.0,1.0,68,0.00,,---,0.00,VWS V14.01,2013-04-13 10:30:00,
2013-04-13 06:34:00,39.8,30.1,29.88,SSW,211,1.0,2.0,68,0.00,,---,0.00,VWS V14.01,2013-04-13 10:34:00,
2013-04-13 06:40:00,39.6,30.3,29.88,WSW,241,0.0,0.0,69,0.00,,---,0.00,VWS V14.01,2013-04-13 10:40:00,
2013-04-13 06:45:00,39.4,30.1,29.88,SSW,205,1.0,2.0,69,0.00,,---,0.00,VWS V14.01,2013-04-13 10:45:00,
2013-04-13 06:50:00,39.2,30.2,29.88,SW,226,0.0,1.0,70,0.00,,---,0.00,VWS V14.01,2013-04-13 10:50:00,
2013-04-13 06:55:00,39.1,30.2,29.88,SW,218,0.0,2.0,70,0.00,,---,0.00,VWS V14.01,2013-04-13 10:55:00,
2013-04-13 07:00:00,39.0,30.1,29.88,WSW,242,0.0,2.0,70,0.00,,---,0.00,VWS V14.01,2013-04-13 11:00:00,
2013-04-13 07:05:00,38.9,30.3,29.89,SW,221,0.0,2.0,71,0.00,,---,0.00,VWS V14.01,2013-04-13 11:05:00,
2013-04-13 07:10:00,39.1,30.5,29.89,SSW,210,1.0,4.0,71,0.00,,---,0.00,VWS V14.01,2013-04-13 11:10:00,
2013-04-13 07:11:00,39.1,30.5,29.89,WSW,244,2.0,2.0,71,0.00,,---,0.00,VWS V14.01,2013-04-13 11:11:00,
2013-04-13 07:16:00,39.3,30.4,29.89,WSW,244,0.0,2.0,70,0.00,,---,0.00,VWS V14.01,2013-04-13 11:16:00,
2013-04-13 07:20:00,39.5,30.5,29.90,WSW,238,0.0,2.0,70,0.00,,---,0.00,VWS V14.01,2013-04-13 11:20:00,
2013-04-13 07:22:00,39.6,30.6,29.90,WSW,248,1.0,2.0,70,0.00,,---,0.00,VWS V14.01,2013-04-13 11:22:00,
2013-04-13 07:27:00,39.8,30.8,29.90,SW,217,3.0,3.0,70,0.00,,---,0.00,VWS V14.01,2013-04-13 11:27:00,
2013-04-13 07:30:00,40.0,31.0,29.90,WSW,238,0.0,3.0,70,0.00,,---,0.00,VWS V14.01,2013-04-13 11:30:00,
2013-04-13 07:32:00,40.2,31.2,29.90,SSW,213,1.0,2.0,70,0.00,,---,0.00,VWS V14.01,2013-04-13 11:32:00,
2013-04-13 07:38:00,40.6,31.2,29.91,SSW,211,4.0,5.0,69,0.00,,---,0.00,VWS V14.01,2013-04-13 11:38:00,
2013-04-13 07:40:00,40.7,31.3,29.91,WSW,237,2.0,5.0,69,0.00,,---,0.00,VWS V14.01,2013-04-13 11:40:00,
2013-04-13 07:43:00,40.9,31.5,29.91,SSW,209,3.0,5.0,69,0.00,,---,0.00,VWS V14.01,2013-04-13 11:43:00,
2013-04-13 07:48:00,41.1,31.4,29.91,SW,215,3.0,5.0,68,0.00,,---,0.00,VWS V14.01,2013-04-13 11:48:00,
2013-04-13 07:50:00,41.1,31.4,29.91,SSW,203,1.0,5.0,68,0.00,,---,0.00,VWS V14.01,2013-04-13 11:50:00,
2013-04-13 07:53:00,41.4,31.6,29.91,SSW,210,3.0,6.0,68,0.00,,---,0.00,VWS V14.01,2013-04-13 11:53:00,
2013-04-13 07:58:00,41.7,31.9,29.91,SW,217,7.0,8.0,68,0.00,,---,0.00,VWS V14.01,2013-04-13 11:58:00,
2013-04-13 08:00:00,41.7,31.6,29.91,SSW,207,4.0,9.0,67,0.00,,---,0.00,VWS V14.01,2013-04-13 12:00:00,
2013-04-13 08:04:00,42.0,32.2,29.92,SW,226,6.0,8.0,68,0.00,,---,0.00,VWS V14.01,2013-04-13 12:04:00,
2013-04-13 08:09:00,42.3,32.1,29.91,South,169,1.0,8.0,67,0.00,,---,0.00,VWS V14.01,2013-04-13 12:09:00,
2013-04-13 08:10:00,42.3,32.1,29.91,SSE,163,2.0,8.0,67,0.00,,---,0.00,VWS V14.01,2013-04-13 12:10:00,
2013-04-13 08:14:00,42.6,32.0,29.91,SW,217,5.0,8.0,66,0.00,,---,0.00,VWS V14.01,2013-04-13 12:14:00,
2013-04-13 08:19:00,43.0,32.4,29.91,WSW,242,3.0,8.0,66,0.00,,---,0.00,VWS V14.01,2013-04-13 12:19:00,
2013-04-13 08:20:00,43.0,32.4,29.91,WSW,242,3.0,8.0,66,0.00,,---,0.00,VWS V14.01,2013-04-13 12:20:00,
2013-04-13 08:24:00,43.3,32.3,29.92,SW,236,6.0,11.0,65,0.00,,---,0.00,VWS V14.01,2013-04-13 12:24:00,
2013-04-13 08:29:00,43.6,32.6,29.92,SW,229,4.0,4.0,65,0.00,,---,0.00,VWS V14.01,2013-04-13 12:29:00,
2013-04-13 08:30:00,43.6,32.6,29.92,WSW,250,4.0,11.0,65,0.00,,---,0.00,VWS V14.01,2013-04-13 12:30:00,
2013-04-13 08:34:00,43.9,32.5,29.92,WSW,252,1.0,8.0,64,0.00,,---,0.00,VWS V14.01,2013-04-13 12:34:00,
2013-04-13 08:39:00,44.2,32.8,29.92,SSW,201,5.0,8.0,64,0.00,,---,0.00,VWS V14.01,2013-04-13 12:39:00,
2013-04-13 08:40:00,44.2,32.8,29.92,SSW,201,5.0,8.0,64,0.00,,---,0.00,VWS V14.01,2013-04-13 12:40:00,
2013-04-13 08:44:00,44.2,32.8,29.92,SW,229,5.0,11.0,64,0.00,,---,0.00,VWS V14.01,2013-04-13 12:44:00,
2013-04-13 08:49:00,44.1,32.3,29.92,WSW,246,5.0,8.0,63,0.00,,---,0.00,VWS V14.01,2013-04-13 12:49:00,
2013-04-13 08:50:00,44.1,31.9,29.92,West,259,7.0,13.0,62,0.00,,---,0.00,VWS V14.01,2013-04-13 12:50:00,
2013-04-13 08:54:00,44.0,32.6,29.92,SSW,205,8.0,12.0,64,0.00,,---,0.00,VWS V14.01,2013-04-13 12:54:00,
2013-04-13 08:59:00,43.8,32.0,29.92,SSW,194,3.0,7.0,63,0.00,,---,0.00,VWS V14.01,2013-04-13 12:59:00,
2013-04-13 09:00:00,43.8,32.0,29.92,SW,215,4.0,14.0,63,0.00,,---,0.00,VWS V14.01,2013-04-13 13:00:00,
2013-04-13 09:04:00,43.8,32.0,29.92,SW,223,6.0,10.0,63,0.00,,---,0.00,VWS V14.01,2013-04-13 13:04:00,
2013-04-13 09:09:00,44.0,32.2,29.92,WSW,239,6.0,6.0,63,0.00,,---,0.00,VWS V14.01,2013-04-13 13:09:00,
2013-04-13 09:10:00,43.9,32.1,29.92,WSW,253,1.0,10.0,63,0.00,,---,0.00,VWS V14.01,2013-04-13 13:10:00,
2013-04-13 09:14:00,44.0,31.8,29.92,South,185,6.0,12.0,62,0.00,,---,0.00,VWS V14.01,2013-04-13 13:14:00,
2013-04-13 09:20:00,44.1,31.5,29.92,WSW,254,8.0,9.0,61,0.00,,---,0.00,VWS V14.01,2013-04-13 13:20:00,
2013-04-13 09:25:00,44.3,31.7,29.93,WSW,242,4.0,12.0,61,0.00,,---,0.00,VWS V14.01,2013-04-13 13:25:00,
2013-04-13 09:30:00,44.5,31.5,29.93,SW,214,10.0,12.0,60,0.00,,---,0.00,VWS V14.01,2013-04-13 13:30:00,
2013-04-13 09:31:00,44.4,31.4,29.92,WSW,243,4.0,15.0,60,0.00,,---,0.00,VWS V14.01,2013-04-13 13:31:00,
2013-04-13 09:36:00,44.6,31.6,29.92,SW,225,5.0,15.0,60,0.00,,---,0.00,VWS V14.01,2013-04-13 13:36:00,
2013-04-13 09:40:00,44.7,31.7,29.92,SW,221,6.0,15.0,60,0.00,,---,0.00,VWS V14.01,2013-04-13 13:40:00,
2013-04-13 09:42:00,44.8,31.4,29.92,SW,221,9.0,12.0,59,0.00,,---,0.00,VWS V14.01,2013-04-13 13:42:00,
2013-04-13 09:47:00,44.9,31.5,29.92,West,263,9.0,12.0,59,0.00,,---,0.00,VWS V14.01,2013-04-13 13:47:00,
2013-04-13 09:50:00,44.9,31.5,29.92,WSW,250,3.0,12.0,59,0.00,,---,0.00,VWS V14.01,2013-04-13 13:50:00,
2013-04-13 09:52:00,45.0,32.0,29.92,WSW,250,6.0,7.0,60,0.00,,---,0.00,VWS V14.01,2013-04-13 13:52:00,
2013-04-13 09:57:00,45.1,31.6,29.92,WSW,254,8.0,13.0,59,0.00,,---,0.00,VWS V14.01,2013-04-13 13:57:00,
2013-04-13 10:00:00,45.1,31.2,29.92,WSW,252,6.0,16.0,58,0.00,,---,0.00,VWS V14.01,2013-04-13 14:00:00,
2013-04-13 10:03:00,45.0,31.1,29.92,WNW,288,5.0,14.0,58,0.00,,---,0.00,VWS V14.01,2013-04-13 14:03:00,
2013-04-13 10:08:00,44.9,31.0,29.92,West,263,11.0,15.0,58,0.00,,---,0.00,VWS V14.01,2013-04-13 14:08:00,
2013-04-13 10:10:00,44.9,31.0,29.92,SW,219,5.0,15.0,58,0.00,,---,0.00,VWS V14.01,2013-04-13 14:10:00,
2013-04-13 10:14:00,45.0,31.1,29.92,WSW,237,1.0,14.0,58,0.00,,---,0.00,VWS V14.01,2013-04-13 14:14:00,
2013-04-13 10:19:00,45.2,31.7,29.92,WSW,242,2.0,14.0,59,0.00,,---,0.00,VWS V14.01,2013-04-13 14:19:00,
2013-04-13 10:20:00,45.2,31.7,29.92,WSW,256,2.0,14.0,59,0.00,,---,0.00,VWS V14.01,2013-04-13 14:20:00,
2013-04-13 10:24:00,45.4,31.5,29.92,SW,215,12.0,16.0,58,0.00,,---,0.00,VWS V14.01,2013-04-13 14:24:00,
2013-04-13 10:29:00,45.4,30.6,29.92,WSW,256,4.0,16.0,56,0.00,,---,0.00,VWS V14.01,2013-04-13 14:29:00,
2013-04-13 10:30:00,45.4,30.6,29.92,WSW,240,12.0,16.0,56,0.00,,---,0.00,VWS V14.01,2013-04-13 14:30:00,
2013-04-13 10:34:00,45.7,31.4,29.92,SSW,206,5.0,12.0,57,0.00,,---,0.00,VWS V14.01,2013-04-13 14:34:00,
2013-04-13 10:39:00,45.9,31.1,29.92,WSW,256,12.0,14.0,56,0.00,,---,0.00,VWS V14.01,2013-04-13 14:39:00,
2013-04-13 10:40:00,45.9,31.5,29.92,South,187,13.0,14.0,57,0.00,,---,0.00,VWS V14.01,2013-04-13 14:40:00,
2013-04-13 10:44:00,45.9,31.5,29.92,SW,225,2.0,16.0,57,0.00,,---,0.00,VWS V14.01,2013-04-13 14:44:00,
2013-04-13 10:49:00,46.1,31.3,29.92,WNW,292,7.0,13.0,56,0.00,,---,0.00,VWS V14.01,2013-04-13 14:49:00,
2013-04-13 10:50:00,46.1,31.3,29.92,SSW,198,11.0,16.0,56,0.00,,---,0.00,VWS V14.01,2013-04-13 14:50:00,
2013-04-13 10:54:00,46.5,32.1,29.92,WSW,249,6.0,13.0,57,0.00,,---,0.00,VWS V14.01,2013-04-13 14:54:00,
2013-04-13 11:00:00,46.5,31.2,29.93,East,80,2.0,12.0,55,0.00,,---,0.00,VWS V14.01,2013-04-13 15:00:00,
2013-04-13 11:05:00,46.5,31.2,29.93,WSW,249,6.0,12.0,55,0.00,,---,0.00,VWS V14.01,2013-04-13 15:05:00,
2013-04-13 11:10:00,46.7,31.9,29.93,WSW,250,7.0,8.0,56,0.00,,---,0.00,VWS V14.01,2013-04-13 15:10:00,
2013-04-13 11:15:00,46.9,31.6,29.92,SW,226,8.0,17.0,55,0.00,,---,0.00,VWS V14.01,2013-04-13 15:15:00,
2013-04-13 11:20:00,47.5,32.6,29.92,SW,230,7.0,12.0,56,0.00,,---,0.00,VWS V14.01,2013-04-13 15:20:00,
2013-04-13 11:25:00,47.7,31.9,29.92,SSW,205,8.0,16.0,54,0.00,,---,0.00,VWS V14.01,2013-04-13 15:25:00,
2013-04-13 11:30:00,48.0,32.2,29.92,WSW,237,10.0,13.0,54,0.00,,---,0.00,VWS V14.01,2013-04-13 15:30:00,
2013-04-13 11:35:00,47.7,31.4,29.92,SSE,159,2.0,20.0,53,0.00,,---,0.00,VWS V14.01,2013-04-13 15:35:00,
2013-04-13 11:40:00,48.3,32.0,29.92,SSW,213,3.0,10.0,53,0.00,,---,0.00,VWS V14.01,2013-04-13 15:40:00,
2013-04-13 11:46:00,48.4,31.6,29.92,SSW,209,2.0,14.0,52,0.00,,---,0.00,VWS V14.01,2013-04-13 15:46:00,
2013-04-13 11:50:00,48.3,31.5,29.92,WSW,238,13.0,15.0,52,0.00,,---,0.00,VWS V14.01,2013-04-13 15:50:00,
2013-04-13 11:51:00,48.1,31.3,29.92,SSW,202,9.0,14.0,52,0.00,,---,0.00,VWS V14.01,2013-04-13 15:51:00,
2013-04-13 11:57:00,48.1,32.3,29.92,WSW,242,9.0,14.0,54,0.00,,---,0.00,VWS V14.01,2013-04-13 15:57:00,
2013-04-13 12:00:00,48.2,31.9,29.92,West,261,8.0,18.0,53,0.00,,---,0.00,VWS V14.01,2013-04-13 16:00:00,
2013-04-13 12:02:00,48.5,32.6,29.92,WSW,252,4.0,13.0,54,0.00,,---,0.00,VWS V14.01,2013-04-13 16:02:00,
2013-04-13 12:07:00,49.6,34.1,29.92,WSW,248,2.0,13.0,55,0.00,,---,0.00,VWS V14.01,2013-04-13 16:07:00,
2013-04-13 12:10:00,50.1,35.5,29.92,WNW,288,2.0,13.0,57,0.00,,---,0.00,VWS V14.01,2013-04-13 16:10:00,
2013-04-13 12:13:00,50.3,33.8,29.92,SSE,163,6.0,12.0,53,0.00,,---,0.00,VWS V14.01,2013-04-13 16:13:00,
2013-04-13 12:18:00,50.9,33.9,29.92,West,264,6.0,12.0,52,0.00,,---,0.00,VWS V14.01,2013-04-13 16:18:00,
2013-04-13 12:20:00,51.0,33.0,29.92,WSW,242,3.0,12.0,50,0.00,,---,0.00,VWS V14.01,2013-04-13 16:20:00,
2013-04-13 12:23:00,51.1,34.1,29.92,WSW,246,5.0,12.0,52,0.00,,---,0.00,VWS V14.01,2013-04-13 16:23:00,
2013-04-13 12:28:00,50.7,33.2,29.92,West,269,7.0,12.0,51,0.00,,---,0.00,VWS V14.01,2013-04-13 16:28:00,
2013-04-13 12:30:00,50.6,32.7,29.92,SW,236,7.0,12.0,50,0.00,,---,0.00,VWS V14.01,2013-04-13 16:30:00,
2013-04-13 12:33:00,50.8,33.3,29.92,ESE,110,6.0,11.0,51,0.00,,---,0.00,VWS V14.01,2013-04-13 16:33:00,
2013-04-13 12:38:00,50.8,33.3,29.92,SW,222,6.0,14.0,51,0.00,,---,0.00,VWS V14.01,2013-04-13 16:38:00,
2013-04-13 12:40:00,50.8,33.8,29.92,WSW,238,9.0,14.0,52,0.00,,---,0.00,VWS V14.01,2013-04-13 16:40:00,
2013-04-13 12:43:00,50.5,32.6,29.91,SSW,207,5.0,14.0,50,0.00,,---,0.00,VWS V14.01,2013-04-13 16:43:00,
2013-04-13 12:48:00,50.6,32.7,29.91,ESE,123,5.0,15.0,50,0.00,,---,0.00,VWS V14.01,2013-04-13 16:48:00,
2013-04-13 12:50:00,50.6,32.7,29.91,SW,226,4.0,15.0,50,0.00,,---,0.00,VWS V14.01,2013-04-13 16:50:00,
2013-04-13 12:54:00,51.1,34.6,29.91,WSW,252,5.0,10.0,53,0.00,,---,0.00,VWS V14.01,2013-04-13 16:54:00,
2013-04-13 12:59:00,52.3,34.7,29.91,SSW,209,1.0,10.0,51,0.00,,---,0.00,VWS V14.01,2013-04-13 16:59:00,
2013-04-13 13:00:00,52.3,34.7,29.91,East,92,4.0,10.0,51,0.00,,---,0.00,VWS V14.01,2013-04-13 17:00:00,
2013-04-13 13:04:00,52.8,33.7,29.91,WSW,252,7.0,12.0,48,0.00,,---,0.00,VWS V14.01,2013-04-13 17:04:00,
2013-04-13 13:09:00,52.1,32.5,29.91,SSW,199,7.0,12.0,47,0.00,,---,0.00,VWS V14.01,2013-04-13 17:09:00,
2013-04-13 13:10:00,52.2,33.6,29.91,SW,233,8.0,12.0,49,0.00,,---,0.00,VWS V14.01,2013-04-13 17:10:00,
2013-04-13 13:14:00,52.4,33.8,29.91,West,276,12.0,12.0,49,0.00,,---,0.00,VWS V14.01,2013-04-13 17:14:00,
2013-04-13 13:19:00,53.1,36.0,29.92,SW,215,4.0,4.0,52,0.00,,---,0.00,VWS V14.01,2013-04-13 17:19:00,
2013-04-13 13:20:00,53.0,35.9,29.92,SE,142,2.0,16.0,52,0.00,,---,0.00,VWS V14.01,2013-04-13 17:20:00,
2013-04-13 13:24:00,53.4,32.6,29.91,SW,232,7.0,14.0,45,0.00,,---,0.00,VWS V14.01,2013-04-13 17:24:00,
2013-04-13 13:29:00,53.1,34.0,29.92,ENE,63,4.0,6.0,48,0.00,,---,0.00,VWS V14.01,2013-04-13 17:29:00,
2013-04-13 13:30:00,53.0,33.8,29.92,SW,225,5.0,14.0,48,0.00,,---,0.00,VWS V14.01,2013-04-13 17:30:00,
2013-04-13 13:34:00,53.6,33.3,29.91,SW,222,10.0,12.0,46,0.00,,---,0.00,VWS V14.01,2013-04-13 17:34:00,
2013-04-13 13:39:00,54.5,35.8,29.91,SW,227,3.0,7.0,49,0.00,,---,0.00,VWS V14.01,2013-04-13 17:39:00,
2013-04-13 13:40:00,54.4,35.7,29.90,WSW,252,7.0,13.0,49,0.00,,---,0.00,VWS V14.01,2013-04-13 17:40:00,
2013-04-13 13:45:00,54.8,34.4,29.90,ESE,123,2.0,15.0,46,0.00,,---,0.00,VWS V14.01,2013-04-13 17:45:00,
2013-04-13 13:50:00,54.0,32.6,29.90,WSW,256,4.0,7.0,44,0.00,,---,0.00,VWS V14.01,2013-04-13 17:50:00,
2013-04-13 13:55:00,54.3,34.5,29.90,WSW,245,3.0,9.0,47,0.00,,---,0.00,VWS V14.01,2013-04-13 17:55:00,
2013-04-13 14:00:00,55.0,36.2,29.90,WNW,286,5.0,7.0,49,0.00,,---,0.00,VWS V14.01,2013-04-13 18:00:00,
2013-04-13 14:05:00,55.6,36.2,29.90,ENE,77,2.0,8.0,48,0.00,,---,0.00,VWS V14.01,2013-04-13 18:05:00,
2013-04-13 14:10:00,55.5,35.6,29.90,WSW,237,6.0,9.0,47,0.00,,---,0.00,VWS V14.01,2013-04-13 18:10:00,
2013-04-13 14:15:00,55.7,34.7,29.90,SW,232,8.0,14.0,45,0.00,,---,0.00,VWS V14.01,2013-04-13 18:15:00,
2013-04-13 14:20:00,55.3,32.6,29.90,SSW,192,10.0,16.0,42,0.00,,---,0.00,VWS V14.01,2013-04-13 18:20:00,
2013-04-13 14:25:00,55.7,35.3,29.89,SSE,165,4.0,16.0,46,0.00,,---,0.00,VWS V14.01,2013-04-13 18:25:00,
2013-04-13 14:27:00,55.9,35.4,29.89,WSW,237,5.0,16.0,46,0.00,,---,0.00,VWS V14.01,2013-04-13 18:27:00,
2013-04-13 14:28:00,56.1,35.6,29.89,SW,215,4.0,16.0,46,0.00,,---,0.00,VWS V14.01,2013-04-13 18:28:00,
2013-04-13 14:30:00,56.1,35.1,29.89,SSW,209,5.0,16.0,45,0.00,,---,0.00,VWS V14.01,2013-04-13 18:30:00,
2013-04-13 14:33:00,56.4,36.4,29.88,WSW,252,3.0,10.0,47,0.00,,---,0.00,VWS V14.01,2013-04-13 18:33:00,
2013-04-13 14:38:00,56.1,34.5,29.88,WSW,250,6.0,12.0,44,0.00,,---,0.00,VWS V14.01,2013-04-13 18:38:00,
2013-04-13 14:40:00,56.2,35.2,29.88,NE,39,2.0,12.0,45,0.00,,---,0.00,VWS V14.01,2013-04-13 18:40:00,
2013-04-13 14:43:00,56.4,34.8,29.87,SW,234,12.0,12.0,44,0.00,,---,0.00,VWS V14.01,2013-04-13 18:43:00,
2013-04-13 14:48:00,56.9,36.9,29.87,ESE,122,4.0,12.0,47,0.00,,---,0.00,VWS V14.01,2013-04-13 18:48:00,
2013-04-13 14:50:00,57.1,36.5,29.87,WNW,287,3.0,12.0,46,0.00,,---,0.00,VWS V14.01,2013-04-13 18:50:00,
2013-04-13 14:53:00,57.3,35.0,29.87,WSW,249,5.0,12.0,43,0.00,,---,0.00,VWS V14.01,2013-04-13 18:53:00,
2013-04-13 14:58:00,57.4,34.5,29.87,SW,215,10.0,15.0,42,0.00,,---,0.00,VWS V14.01,2013-04-13 18:58:00,
2013-04-13 15:00:00,57.2,33.7,29.87,WNW,293,7.0,15.0,41,0.00,,---,0.00,VWS V14.01,2013-04-13 19:00:00,
2013-04-13 15:03:00,56.8,34.0,29.88,WNW,283,5.0,13.0,42,0.00,,---,0.00,VWS V14.01,2013-04-13 19:03:00,
2013-04-13 15:08:00,56.6,34.4,29.88,SW,230,2.0,16.0,43,0.00,,---,0.00,VWS V14.01,2013-04-13 19:08:00,
2013-04-13 15:10:00,56.7,35.0,29.88,NE,53,6.0,16.0,44,0.00,,---,0.00,VWS V14.01,2013-04-13 19:10:00,
2013-04-13 15:13:00,57.0,35.3,29.88,West,261,11.0,11.0,44,0.00,,---,0.00,VWS V14.01,2013-04-13 19:13:00,
2013-04-13 15:18:00,57.7,34.8,29.87,SW,221,14.0,14.0,42,0.00,,---,0.00,VWS V14.01,2013-04-13 19:18:00,
2013-04-13 15:20:00,57.7,34.8,29.87,WSW,239,8.0,15.0,42,0.00,,---,0.00,VWS V14.01,2013-04-13 19:20:00,
2013-04-13 15:23:00,57.9,35.0,29.87,NW,308,2.0,12.0,42,0.00,,---,0.00,VWS V14.01,2013-04-13 19:23:00,
2013-04-13 15:28:00,57.3,35.0,29.87,WSW,245,3.0,16.0,43,0.00,,---,0.00,VWS V14.01,2013-04-13 19:28:00,
2013-04-13 15:30:00,57.2,33.7,29.87,NNW,334,8.0,16.0,41,0.00,,---,0.00,VWS V14.01,2013-04-13 19:30:00,
2013-04-13 15:33:00,57.0,35.3,29.87,SSE,160,8.0,13.0,44,0.00,,---,0.00,VWS V14.01,2013-04-13 19:33:00,
2013-04-13 15:38:00,57.2,33.7,29.87,SSW,203,5.0,15.0,41,0.00,,---,0.00,VWS V14.01,2013-04-13 19:38:00,
2013-04-13 15:40:00,57.1,33.6,29.87,SSW,210,10.0,15.0,41,0.00,,---,0.00,VWS V14.01,2013-04-13 19:40:00,
2013-04-13 15:43:00,57.7,36.5,29.87,ESE,110,5.0,14.0,45,0.00,,---,0.00,VWS V14.01,2013-04-13 19:43:00,
2013-04-13 15:48:00,58.4,35.4,29.87,ESE,107,7.0,14.0,42,0.00,,---,0.00,VWS V14.01,2013-04-13 19:48:00,
2013-04-13 15:50:00,58.5,35.5,29.87,NNE,27,6.0,14.0,42,0.00,,---,0.00,VWS V14.01,2013-04-13 19:50:00,
2013-04-13 15:53:00,58.9,34.6,29.87,NNW,330,8.0,15.0,40,0.00,,---,0.00,VWS V14.01,2013-04-13 19:53:00,
2013-04-13 15:58:00,58.8,35.2,29.86,ESE,123,9.0,15.0,41,0.00,,---,0.00,VWS V14.01,2013-04-13 19:58:00,
2013-04-13 16:00:00,58.8,34.5,29.86,West,261,7.0,15.0,40,0.00,,---,0.00,VWS V14.01,2013-04-13 20:00:00,
2013-04-13 16:03:00,58.6,35.0,29.86,NW,305,5.0,13.0,41,0.00,,---,0.00,VWS V14.01,2013-04-13 20:03:00,
2013-04-13 16:09:00,59.2,35.5,29.86,WSW,244,8.0,13.0,41,0.00,,---,0.00,VWS V14.01,2013-04-13 20:09:00,
2013-04-13 16:10:00,59.3,35.6,29.86,WSW,238,4.0,13.0,41,0.00,,---,0.00,VWS V14.01,2013-04-13 20:10:00,
2013-04-13 16:14:00,59.1,34.2,29.86,SSW,209,6.0,19.0,39,0.00,,---,0.00,VWS V14.01,2013-04-13 20:14:00,
2013-04-13 16:19:00,58.7,33.8,29.86,WSW,248,5.0,19.0,39,0.00,,---,0.00,VWS V14.01,2013-04-13 20:19:00,
2013-04-13 16:20:00,58.7,34.5,29.86,WSW,256,7.0,19.0,40,0.00,,---,0.00,VWS V14.01,2013-04-13 20:20:00,
2013-04-13 16:24:00,58.8,35.2,29.85,SW,215,10.0,15.0,41,0.00,,---,0.00,VWS V14.01,2013-04-13 20:24:00,
2013-04-13 16:29:00,59.4,36.3,29.86,SW,236,3.0,15.0,42,0.00,,---,0.00,VWS V14.01,2013-04-13 20:29:00,
2013-04-13 16:30:00,59.4,35.1,29.86,NNW,327,3.0,15.0,40,0.00,,---,0.00,VWS V14.01,2013-04-13 20:30:00,
2013-04-13 16:34:00,59.7,34.1,29.86,ESE,113,5.0,13.0,38,0.00,,---,0.00,VWS V14.01,2013-04-13 20:34:00,
2013-04-13 16:39:00,59.9,34.9,29.86,NE,38,5.0,13.0,39,0.00,,---,0.00,VWS V14.01,2013-04-13 20:39:00,
2013-04-13 16:40:00,59.9,34.9,29.86,SSE,165,4.0,13.0,39,0.00,,---,0.00,VWS V14.01,2013-04-13 20:40:00,
2013-04-13 16:44:00,60.1,33.1,29.86,NE,53,13.0,14.0,36,0.00,,---,0.00,VWS V14.01,2013-04-13 20:44:00,
2013-04-13 16:49:00,59.7,32.7,29.86,West,261,5.0,18.0,36,0.00,,---,0.00,VWS V14.01,2013-04-13 20:49:00,
2013-04-13 16:50:00,59.7,32.7,29.86,West,266,4.0,18.0,36,0.00,,---,0.00,VWS V14.01,2013-04-13 20:50:00,
2013-04-13 16:54:00,59.5,33.9,29.86,WSW,238,4.0,13.0,38,0.00,,---,0.00,VWS V14.01,2013-04-13 20:54:00,
2013-04-13 16:59:00,59.5,32.5,29.86,WSW,242,10.0,13.0,36,0.00,,---,0.00,VWS V14.01,2013-04-13 20:59:00,
2013-04-13 17:00:00,59.5,32.5,29.86,WSW,237,8.0,13.0,36,0.00,,---,0.00,VWS V14.01,2013-04-13 21:00:00,
2013-04-13 17:04:00,59.3,33.0,29.87,NE,42,7.0,15.0,37,0.00,,---,0.00,VWS V14.01,2013-04-13 21:04:00,
2013-04-13 17:09:00,59.5,33.2,29.87,SSW,207,4.0,15.0,37,0.00,,---,0.00,VWS V14.01,2013-04-13 21:09:00,
2013-04-13 17:10:00,59.5,33.2,29.87,WSW,244,3.0,15.0,37,0.00,,---,0.00,VWS V14.01,2013-04-13 21:10:00,
2013-04-13 17:14:00,59.9,34.2,29.87,West,279,10.0,10.0,38,0.00,,---,0.00,VWS V14.01,2013-04-13 21:14:00,
2013-04-13 17:19:00,59.7,33.4,29.87,NE,46,3.0,10.0,37,0.00,,---,0.00,VWS V14.01,2013-04-13 21:19:00,
2013-04-13 17:20:00,59.7,33.4,29.87,West,275,5.0,10.0,37,0.00,,---,0.00,VWS V14.01,2013-04-13 21:20:00,
2013-04-13 17:24:00,59.5,33.9,29.87,NE,54,3.0,13.0,38,0.00,,---,0.00,VWS V14.01,2013-04-13 21:24:00,
2013-04-13 17:29:00,59.3,34.4,29.87,West,280,10.0,13.0,39,0.00,,---,0.00,VWS V14.01,2013-04-13 21:29:00,
2013-04-13 17:30:00,59.4,34.5,29.87,West,267,6.0,13.0,39,0.00,,---,0.00,VWS V14.01,2013-04-13 21:30:00,
2013-04-13 17:34:00,58.9,32.0,29.87,SSW,208,9.0,18.0,36,0.00,,---,0.00,VWS V14.01,2013-04-13 21:34:00,
2013-04-13 17:39:00,58.6,32.4,29.88,West,277,11.0,18.0,37,0.00,,---,0.00,VWS V14.01,2013-04-13 21:39:00,
2013-04-13 17:40:00,58.6,32.4,29.88,West,277,11.0,18.0,37,0.00,,---,0.00,VWS V14.01,2013-04-13 21:40:00,
2013-04-13 17:44:00,58.4,32.2,29.88,WSW,244,12.0,12.0,37,0.00,,---,0.00,VWS V14.01,2013-04-13 21:44:00,
2013-04-13 17:49:00,58.7,32.5,29.88,West,259,7.0,12.0,37,0.00,,---,0.00,VWS V14.01,2013-04-13 21:49:00,
2013-04-13 17:50:00,58.7,32.5,29.88,WSW,244,8.0,12.0,37,0.00,,---,0.00,VWS V14.01,2013-04-13 21:50:00,
2013-04-13 17:54:00,58.8,31.2,29.88,WSW,237,2.0,14.0,35,0.00,,---,0.00,VWS V14.01,2013-04-13 21:54:00,
2013-04-13 17:59:00,58.3,31.5,29.88,WSW,246,8.0,14.0,36,0.00,,---,0.00,VWS V14.01,2013-04-13 21:59:00,
2013-04-13 18:00:00,58.3,31.5,29.88,WSW,246,8.0,14.0,36,0.00,,---,0.00,VWS V14.01,2013-04-13 22:00:00,
2013-04-13 18:04:00,57.5,31.5,29.88,SW,226,3.0,16.0,37,0.00,,---,0.00,VWS V14.01,2013-04-13 22:04:00,
2013-04-13 18:09:00,57.5,31.5,29.89,East,93,2.0,16.0,37,0.00,,---,0.00,VWS V14.01,2013-04-13 22:09:00,
2013-04-13 18:10:00,57.5,31.5,29.89,East,93,2.0,16.0,37,0.00,,---,0.00,VWS V14.01,2013-04-13 22:10:00,
2013-04-13 18:14:00,58.2,32.7,29.88,WSW,256,6.0,10.0,38,0.00,,---,0.00,VWS V14.01,2013-04-13 22:14:00,
2013-04-13 18:19:00,57.5,31.5,29.89,ESE,108,6.0,11.0,37,0.00,,---,0.00,VWS V14.01,2013-04-13 22:19:00,
2013-04-13 18:20:00,57.5,31.5,29.89,ESE,108,6.0,11.0,37,0.00,,---,0.00,VWS V14.01,2013-04-13 22:20:00,
2013-04-13 18:24:00,56.9,31.6,29.89,SSE,152,4.0,10.0,38,0.00,,---,0.00,VWS V14.01,2013-04-13 22:24:00,
2013-04-13 18:29:00,57.4,32.0,29.89,WSW,242,6.0,6.0,38,0.00,,---,0.00,VWS V14.01,2013-04-13 22:29:00,
2013-04-13 18:30:00,57.4,32.0,29.89,WSW,249,4.0,12.0,38,0.00,,---,0.00,VWS V14.01,2013-04-13 22:30:00,
2013-04-13 18:34:00,57.9,31.8,29.89,SW,232,6.0,10.0,37,0.00,,---,0.00,VWS V14.01,2013-04-13 22:34:00,
2013-04-13 18:39:00,57.5,32.1,29.89,SSW,213,2.0,5.0,38,0.00,,---,0.00,VWS V14.01,2013-04-13 22:39:00,
2013-04-13 18:40:00,57.5,32.1,29.89,NNE,22,5.0,16.0,38,0.00,,---,0.00,VWS V14.01,2013-04-13 22:40:00,
2013-04-13 18:44:00,56.8,31.5,29.89,ENE,74,6.0,8.0,38,0.00,,---,0.00,VWS V14.01,2013-04-13 22:44:00,
2013-04-13 18:49:00,56.4,31.8,29.90,WSW,253,3.0,4.0,39,0.00,,---,0.00,VWS V14.01,2013-04-13 22:49:00,
2013-04-13 18:50:00,56.4,31.8,29.90,SSW,206,4.0,9.0,39,0.00,,---,0.00,VWS V14.01,2013-04-13 22:50:00,
2013-04-13 18:54:00,56.5,31.9,29.90,SSE,163,2.0,13.0,39,0.00,,---,0.00,VWS V14.01,2013-04-13 22:54:00,
2013-04-13 18:59:00,57.0,31.7,29.90,WSW,240,6.0,6.0,38,0.00,,---,0.00,VWS V14.01,2013-04-13 22:59:00,
2013-04-13 19:00:00,57.0,32.3,29.90,WSW,238,4.0,13.0,39,0.00,,---,0.00,VWS V14.01,2013-04-13 23:00:00,
2013-04-13 19:04:00,56.7,31.4,29.90,WSW,248,5.0,11.0,38,0.00,,---,0.00,VWS V14.01,2013-04-13 23:04:00,
2013-04-13 19:09:00,56.3,31.7,29.90,West,279,3.0,5.0,39,0.00,,---,0.00,VWS V14.01,2013-04-13 23:09:00,
2013-04-13 19:10:00,56.3,31.7,29.90,SE,140,2.0,11.0,39,0.00,,---,0.00,VWS V14.01,2013-04-13 23:10:00,
2013-04-13 19:14:00,56.1,32.1,29.90,ESE,112,4.0,8.0,40,0.00,,---,0.00,VWS V14.01,2013-04-13 23:14:00,
2013-04-13 19:19:00,56.0,31.4,29.90,SSE,157,5.0,5.0,39,0.00,,---,0.00,VWS V14.01,2013-04-13 23:19:00,
2013-04-13 19:20:00,56.0,31.4,29.90,SSE,168,2.0,8.0,39,0.00,,---,0.00,VWS V14.01,2013-04-13 23:20:00,
2013-04-13 19:24:00,55.8,31.9,29.90,NNE,13,2.0,8.0,40,0.00,,---,0.00,VWS V14.01,2013-04-13 23:24:00,
2013-04-13 19:29:00,55.6,32.3,29.91,East,100,2.0,5.0,41,0.00,,---,0.00,VWS V14.01,2013-04-13 23:29:00,
2013-04-13 19:30:00,55.7,32.4,29.91,SSE,149,2.0,8.0,41,0.00,,---,0.00,VWS V14.01,2013-04-13 23:30:00,
2013-04-13 19:34:00,55.5,31.6,29.91,WNW,296,7.0,9.0,40,0.00,,---,0.00,VWS V14.01,2013-04-13 23:34:00,
2013-04-13 19:40:00,54.7,33.8,29.91,NW,306,6.0,8.0,45,0.00,,---,0.00,VWS V14.01,2013-04-13 23:40:00,
2013-04-13 19:45:00,53.6,33.9,29.91,NNW,327,5.0,13.0,47,0.00,,---,0.00,VWS V14.01,2013-04-13 23:45:00,
2013-04-13 19:50:00,52.9,34.3,29.92,NW,310,6.0,7.0,49,0.00,,---,0.00,VWS V14.01,2013-04-13 23:50:00,
2013-04-13 19:55:00,52.4,34.3,29.92,NW,315,5.0,7.0,50,0.00,,---,0.00,VWS V14.01,2013-04-13 23:55:00,
2013-04-13 20:00:00,52.0,34.5,29.92,NW,318,4.0,5.0,51,0.00,,---,0.00,VWS V14.01,2013-04-14 00:00:00,
2013-04-13 20:05:00,51.6,34.1,29.92,NNE,28,7.0,7.0,51,0.00,,---,0.00,VWS V14.01,2013-04-14 00:05:00,
2013-04-13 20:10:00,51.4,34.4,29.93,NNW,328,3.0,5.0,52,0.00,,---,0.00,VWS V14.01,2013-04-14 00:10:00,
2013-04-13 20:15:00,51.1,34.6,29.93,North,351,1.0,8.0,53,0.00,,---,0.00,VWS V14.01,2013-04-14 00:15:00,
2013-04-13 20:20:00,50.8,34.3,29.93,NW,314,3.0,3.0,53,0.00,,---,0.00,VWS V14.01,2013-04-14 00:20:00,
2013-04-13 20:25:00,50.6,34.6,29.93,West,273,1.0,7.0,54,0.00,,---,0.00,VWS V14.01,2013-04-14 00:25:00,
2013-04-13 20:30:00,50.3,34.3,29.93,NNW,334,1.0,3.0,54,0.00,,---,0.00,VWS V14.01,2013-04-14 00:30:00,
2013-04-13 20:35:00,50.1,34.6,29.94,NNW,330,1.0,4.0,55,0.00,,---,0.00,VWS V14.01,2013-04-14 00:35:00,
2013-04-13 20:40:00,49.9,34.4,29.94,NNE,20,2.0,3.0,55,0.00,,---,0.00,VWS V14.01,2013-04-14 00:40:00,
2013-04-13 20:45:00,49.7,34.2,29.94,NNW,331,1.0,4.0,55,0.00,,---,0.00,VWS V14.01,2013-04-14 00:45:00,
2013-04-13 20:50:00,49.6,34.6,29.94,NNW,344,3.0,3.0,56,0.00,,---,0.00,VWS V14.01,2013-04-14 00:50:00,
2013-04-13 20:55:00,49.4,34.4,29.94,NNW,340,0.0,3.0,56,0.00,,---,0.00,VWS V14.01,2013-04-14 00:55:00,
2013-04-13 21:00:00,49.0,34.5,29.95,NNW,340,0.0,0.0,57,0.00,,---,0.00,VWS V14.01,2013-04-14 01:00:00,
2013-04-13 21:05:00,48.7,34.2,29.95,NNW,341,0.0,0.0,57,0.00,,---,0.00,VWS V14.01,2013-04-14 01:05:00,
2013-04-13 21:10:00,48.5,34.4,29.95,NNW,346,0.0,0.0,58,0.00,,---,0.00,VWS V14.01,2013-04-14 01:10:00,
2013-04-13 21:15:00,48.3,34.7,29.95,NNW,346,0.0,0.0,59,0.00,,---,0.00,VWS V14.01,2013-04-14 01:15:00,
2013-04-13 21:20:00,47.9,34.3,29.95,NNW,346,0.0,0.0,59,0.00,,---,0.00,VWS V14.01,2013-04-14 01:20:00,
2013-04-13 21:25:00,47.6,34.4,29.95,ESE,113,0.0,0.0,60,0.00,,---,0.00,VWS V14.01,2013-04-14 01:25:00,
2013-04-13 21:30:00,47.5,34.3,29.96,ESE,113,0.0,0.0,60,0.00,,---,0.00,VWS V14.01,2013-04-14 01:30:00,
2013-04-13 21:35:00,47.0,33.8,29.96,ESE,113,0.0,0.0,60,0.00,,---,0.00,VWS V14.01,2013-04-14 01:35:00,
2013-04-13 21:40:00,46.6,34.3,29.96,ESE,113,0.0,0.0,62,0.00,,---,0.00,VWS V14.01,2013-04-14 01:40:00,
2013-04-13 21:45:00,46.9,34.2,29.96,ESE,113,0.0,0.0,61,0.00,,---,0.00,VWS V14.01,2013-04-14 01:45:00,
2013-04-13 21:50:00,46.1,34.2,29.96,West,267,0.0,0.0,63,0.00,,---,0.00,VWS V14.01,2013-04-14 01:50:00,
2013-04-13 21:55:00,45.7,34.6,29.96,West,267,0.0,0.0,65,0.00,,---,0.00,VWS V14.01,2013-04-14 01:55:00,
2013-04-13 22:00:00,45.7,34.2,29.96,West,267,0.0,0.0,64,0.00,,---,0.00,VWS V14.01,2013-04-14 02:00:00,
2013-04-13 22:05:00,45.3,34.2,29.96,West,267,0.0,0.0,65,0.00,,---,0.00,VWS V14.01,2013-04-14 02:05:00,
2013-04-13 22:10:00,44.7,34.4,29.97,West,267,0.0,0.0,67,0.00,,---,0.00,VWS V14.01,2013-04-14 02:10:00,
2013-04-13 22:15:00,44.1,34.6,29.97,West,265,0.0,0.0,69,0.00,,---,0.00,VWS V14.01,2013-04-14 02:15:00,
2013-04-13 22:20:00,43.6,34.5,29.97,West,265,0.0,0.0,70,0.00,,---,0.00,VWS V14.01,2013-04-14 02:20:00,
2013-04-13 22:25:00,43.2,34.5,29.97,West,265,0.0,0.0,71,0.00,,---,0.00,VWS V14.01,2013-04-14 02:25:00,
2013-04-13 22:30:00,42.9,34.5,29.97,West,265,0.0,0.0,72,0.00,,---,0.00,VWS V14.01,2013-04-14 02:30:00,
2013-04-13 22:35:00,42.5,34.5,29.97,West,265,0.0,0.0,73,0.00,,---,0.00,VWS V14.01,2013-04-14 02:35:00,
2013-04-13 22:40:00,42.2,34.5,29.97,West,265,0.0,0.0,74,0.00,,---,0.00,VWS V14.01,2013-04-14 02:40:00,
2013-04-13 22:45:00,41.9,34.6,29.97,West,265,0.0,0.0,75,0.00,,---,0.00,VWS V14.01,2013-04-14 02:45:00,
2013-04-13 22:50:00,41.9,34.2,29.97,SSE,157,0.0,0.0,74,0.00,,---,0.00,VWS V14.01,2013-04-14 02:50:00,
2013-04-13 22:55:00,41.8,34.1,29.97,SSE,158,0.0,0.0,74,0.00,,---,0.00,VWS V14.01,2013-04-14 02:55:00,
2013-04-13 23:00:00,41.6,34.3,29.97,SSE,158,0.0,0.0,75,0.00,,---,0.00,VWS V14.01,2013-04-14 03:00:00,
2013-04-13 23:05:00,41.4,34.1,29.97,SSE,157,0.0,0.0,75,0.00,,---,0.00,VWS V14.01,2013-04-14 03:05:00,
2013-04-13 23:10:00,41.1,34.1,29.98,SSE,158,0.0,0.0,76,0.00,,---,0.00,VWS V14.01,2013-04-14 03:10:00,
2013-04-13 23:15:00,40.7,33.7,29.98,SSE,157,0.0,0.0,76,0.00,,---,0.00,VWS V14.01,2013-04-14 03:15:00,
2013-04-13 23:20:00,40.4,33.8,29.98,SSE,157,0.0,0.0,77,0.00,,---,0.00,VWS V14.01,2013-04-14 03:20:00,
2013-04-13 23:25:00,40.1,33.8,29.98,SSE,158,0.0,0.0,78,0.00,,---,0.00,VWS V14.01,2013-04-14 03:25:00,
2013-04-13 23:30:00,39.8,33.5,29.98,SSE,157,0.0,0.0,78,0.00,,---,0.00,VWS V14.01,2013-04-14 03:30:00,
2013-04-13 23:35:00,39.3,33.7,29.98,SSE,157,0.0,0.0,80,0.00,,---,0.00,VWS V14.01,2013-04-14 03:35:00,
2013-04-13 23:40:00,39.1,33.8,29.98,East,89,0.0,0.0,81,0.00,,---,0.00,VWS V14.01,2013-04-14 03:40:00,
2013-04-13 23:45:00,39.3,34.0,29.99,NW,323,0.0,1.0,81,0.00,,---,0.00,VWS V14.01,2013-04-14 03:45:00,
2013-04-13 23:50:00,39.2,33.6,29.99,NW,323,0.0,0.0,80,0.00,,---,0.00,VWS V14.01,2013-04-14 03:50:00,
2013-04-13 23:56:00,38.9,33.6,29.99,NW,323,0.0,0.0,81,0.00,,---,0.00,VWS V14.01,2013-04-14 03:56:00,